George, South Africa

12:20 AM SAST on December 16, 2017 (GMT +0200)
George

Weather History for FAGG - September, 2013

Change the Weather History Date:

Wednesday, September 4, 2013

  Actual Average Record
Temperature  
Mean Temperature 51 °F -  
Max Temperature 61 °F 64 °F 94 °F (2017)
Min Temperature 41 °F 47 °F 41 °F (2013)
Degree Days  
Heating Degree Days 14    
Growing Degree Days 1 (Base 50)    
Moisture  
Dew Point 42 °F    
Average Humidity 70    
Maximum Humidity 87    
Minimum Humidity 49    
Precipitation  
Precipitation 0.00 in - - ()
Sea Level Pressure  
Sea Level Pressure 30.33 in    
Wind  
Wind Speed 5 mph ()    
Max Wind Speed 15 mph    
Max Gust Speed -    
Visibility 8.4 miles    
Events      
Averages and records for this station are not official NWS values.
T = Trace of Precipitation, MM = Missing Value Source: Averaged Metar Reports

Daily Weather History Graph

Daily Weather History Graph

Search for Another Location

Airport or City:

Trip Planner

Search our weather history database for the weather conditions in past years. The results will help you decide how hot, cold, wet, or windy it might be!

Date:

Astronomy

Sep. 04, 2013 Rise Set
Actual Time 6:44 AM SAST 6:14 PM SAST
Civil Twilight 6:19 AM SAST 6:39 PM SAST
Nautical Twilight 5:50 AM SAST 7:08 PM SAST
Astronomical Twilight 5:21 AM SAST 7:37 PM SAST
Moon 5:47 AM SAST (9/4) 5:27 PM SAST (9/4)
Length of Visible Light 12h 19m
Length of Day
11h 29m
Waning Crescent, 1% of the Moon is Illuminated
Sep 4
Waning Crescent
Sep 5
New
Sep 12
First Quarter
Sep 19
Full
Sep 27
Last Quarter

Hourly Weather History & Observations

Time (SAST) Temp. Windchill Dew Point Humidity Pressure Visibility Wind Dir Wind Speed Gust Speed Precip Events Conditions
1:00 AM 44.6 °F - 39.2 °F 81% 30.33 in - Variable 2.3 mph - N/A   Clear
2:00 AM 44 °F - 39 °F 76% 30.35 in 12 mi North 3.5 mph - -  
2:00 AM 44.6 °F 43.1 °F 39.2 °F 81% 30.33 in - North 3.5 mph - N/A   Clear
3:00 AM 42.8 °F 41.1 °F 37.4 °F 81% 30.30 in - NNW 3.5 mph - N/A   Clear
4:00 AM 42.8 °F 41.1 °F 39.2 °F 87% 30.30 in - NNW 3.5 mph - N/A   Clear
5:00 AM 42.8 °F 41.1 °F 39.2 °F 87% 30.30 in - North 3.5 mph - N/A   Clear
6:00 AM 42.8 °F 40.1 °F 37.4 °F 81% 30.30 in - NNE 4.6 mph - N/A   Clear
7:00 AM 42.8 °F 41.1 °F 37.4 °F 81% 30.27 in - NNW 3.5 mph - N/A   Clear
8:00 AM 47 °F - 42 °F 75% 30.30 in 12 mi NW 3.5 mph - -  
8:00 AM 46.4 °F - 42.8 °F 87% 30.27 in - Variable 2.3 mph - N/A   Clear
9:00 AM 51.8 °F - 42.8 °F 71% 30.30 in - WSW 4.6 mph - N/A   Clear
10:00 AM 57.2 °F - 42.8 °F 59% 30.33 in - WSW 6.9 mph - N/A   Clear
11:00 AM 59 °F - 45 °F 50% 30.37 in 12 mi WSW 11.5 mph - -   Scattered Clouds
11:00 AM 59.0 °F - 46.4 °F 63% 30.36 in 6.2 mi WSW 11.5 mph - N/A   Partly Cloudy
12:00 PM 59.0 °F - 42.8 °F 55% 30.36 in 6.2 mi SW 15.0 mph - N/A   Mostly Cloudy
1:00 PM 59.0 °F - 44.6 °F 59% 30.33 in 6.2 mi SSW 12.7 mph - N/A   Scattered Clouds
2:00 PM 60 °F - 46 °F 49% 30.33 in 12 mi SSW 9.2 mph - -   Scattered Clouds
2:00 PM 60.8 °F - 46.4 °F 59% 30.33 in 6.2 mi SSW 9.2 mph - N/A   Partly Cloudy
3:00 PM 60.8 °F - 44.6 °F 55% 30.30 in 6.2 mi South 9.2 mph - N/A   Partly Cloudy
4:00 PM 59.0 °F - 42.8 °F 55% 30.33 in 6.2 mi SSW 10.4 mph - N/A   Partly Cloudy
5:00 PM 58 °F - 44 °F 50% 30.34 in 12 mi SSW 9.2 mph - -   Scattered Clouds
5:00 PM 57.2 °F - 44.6 °F 63% 30.33 in 6.2 mi SSW 8.1 mph - N/A   Partly Cloudy
6:00 PM 55.4 °F - 44.6 °F 67% 30.36 in 6.2 mi WSW 4.6 mph - N/A   Partly Cloudy
7:00 PM 53.6 °F - 44.6 °F 72% 30.36 in - North 3.5 mph - N/A   Clear
8:00 PM 51.8 °F - 42.8 °F 71% 30.36 in - North 5.8 mph - N/A   Clear
9:00 PM 48.2 °F - 42.8 °F 82% 30.39 in - NNW 5.8 mph - N/A   Clear
10:00 PM 48.2 °F - 42.8 °F 82% 30.39 in - NW 4.6 mph - N/A   Clear
11:00 PM 48.2 °F - 41.0 °F 76% 30.39 in - NNW 4.6 mph - N/A   Clear